Satellite-Ground Cal/Val Site Overpasses Predictions

Prediction of Satellite NPP Overpassing Cal/Val Site: Antarctic Dome C

Ground Cal/Val Site Location: Latitude: -75.10, Longitude: 123.35; Satellite-Ground Site NADIR distance within 100 km.

Table of predicted overpasses for the next 14.0 days since TLE Epoch: 1/9/2021
Interval Starting Time Ending Time Minimum Distance Time Minimum Distance (km)
1 01/09/2021 14:35:48 01/09/2021 14:36:02 01/09/2021 14:35:55 86.81
2 01/10/2021 07:37:20 01/10/2021 07:37:48 01/10/2021 07:37:34 35.97
3 01/11/2021 07:18:34 01/11/2021 07:18:53 01/11/2021 07:18:44 74.06
4 01/13/2021 15:00:49 01/13/2021 15:01:13 01/13/2021 15:01:01 57.32
5 01/14/2021 14:41:59 01/14/2021 14:42:24 01/14/2021 14:42:12 51.75
6 01/15/2021 07:43:40 01/15/2021 07:44:00 01/15/2021 07:43:50 71.34
7 01/16/2021 07:24:48 01/16/2021 07:25:15 01/16/2021 07:25:01 36.60
8 01/18/2021 15:07:14 01/18/2021 15:07:23 01/18/2021 15:07:19 95.26
9 01/19/2021 14:48:14 01/19/2021 14:48:43 01/19/2021 14:48:28 15.97
